VBA WAAA-YBBN

Flight info

Callsign VBA
Flight time 5h 16m
Altitude 36000
Route DCT KEONG M774 KIKEM A464 UNVAT V327 IGUPI Y340 LAMUG Y177 SMOKA
Aircraft B738/M-SCDFIU/C

Departure

Time 2026-04-21 19:20
Airport Sultan Hasanuddin International Airport (WAAA)

Arrival

Time 2026-04-22 00:36
Airport Brisbane International Airport (YBBN)
Time Latitude Longitude Altitude Speed Heading
2026-04-21 19:18 -5.06871 119.56225 40 ft 0 kts 310°
2026-04-21 19:19 -5.06839 119.56188 41 ft 31 kts 310°
2026-04-21 19:19 -5.06566 119.55868 50 ft 74 kts 310°
2026-04-21 19:19 -5.06239 119.55488 53 ft 69 kts 310°
2026-04-21 19:20 -5.05900 119.55086 55 ft 97 kts 311°
2026-04-21 19:20 -5.05320 119.54413 46 ft 156 kts 311°
2026-04-21 19:20 -5.04568 119.53529 440 ft 173 kts 309°
2026-04-21 19:20 -5.03861 119.52524 1059 ft 182 kts 295°
2026-04-21 19:21 -5.03627 119.51303 1724 ft 184 kts 262°
2026-04-21 19:21 -5.04135 119.50079 1988 ft 204 kts 227°
2026-04-21 19:21 -5.05367 119.49300 2328 ft 219 kts 192°
2026-04-21 19:21 -5.06917 119.49284 2781 ft 229 kts 167°
2026-04-21 19:22 -5.08518 119.49714 3208 ft 246 kts 161°
2026-04-21 19:22 -5.09699 119.50069 3585 ft 255 kts 161°
2026-04-21 19:22 -5.11447 119.50577 4110 ft 268 kts 162°
2026-04-21 19:22 -5.13270 119.51100 4808 ft 273 kts 162°
2026-04-21 19:23 -5.15093 119.51623 5532 ft 277 kts 161°
2026-04-21 19:23 -5.16967 119.52165 6257 ft 281 kts 161°
2026-04-21 19:23 -5.18849 119.52711 6941 ft 284 kts 161°
2026-04-21 19:23 -5.20765 119.53268 7636 ft 287 kts 161°
2026-04-21 19:24 -5.22711 119.53835 8333 ft 290 kts 161°
2026-04-21 19:24 -5.24652 119.54400 8992 ft 294 kts 161°
2026-04-21 19:24 -5.26611 119.54970 9662 ft 297 kts 161°
2026-04-21 19:24 -5.28637 119.55559 10251 ft 303 kts 161°
2026-04-21 19:25 -5.30696 119.56161 10564 ft 319 kts 161°
2026-04-21 19:25 -5.32896 119.56803 10896 ft 334 kts 161°
2026-04-21 19:25 -5.35198 119.57474 11208 ft 349 kts 161°
2026-04-21 19:25 -5.37585 119.58170 11497 ft 364 kts 161°
2026-04-21 19:26 -5.40052 119.58887 11966 ft 372 kts 161°
2026-04-21 19:26 -5.42583 119.59621 12550 ft 378 kts 161°
2026-04-21 19:26 -5.45108 119.60353 13171 ft 381 kts 161°
2026-04-21 19:26 -5.47696 119.61105 13762 ft 386 kts 161°
2026-04-21 19:27 -5.50289 119.61858 14369 ft 390 kts 161°
2026-04-21 19:27 -5.52906 119.62620 14999 ft 393 kts 161°
2026-04-21 19:27 -5.55517 119.63380 15584 ft 396 kts 161°
2026-04-21 19:27 -5.58196 119.64160 16153 ft 400 kts 161°
2026-04-21 19:28 -5.60902 119.64948 16722 ft 404 kts 161°
2026-04-21 19:28 -5.63614 119.65738 17242 ft 408 kts 161°
2026-04-21 19:28 -5.66367 119.66541 17800 ft 411 kts 161°
2026-04-21 19:28 -5.69137 119.67348 18292 ft 416 kts 162°
2026-04-21 19:29 -5.71944 119.68165 18798 ft 419 kts 162°
2026-04-21 19:29 -5.74734 119.68978 19294 ft 423 kts 162°
2026-04-21 19:29 -5.77596 119.69811 19791 ft 426 kts 162°
2026-04-21 19:29 -5.80468 119.70647 20265 ft 430 kts 162°
2026-04-21 19:30 -5.83345 119.71486 20757 ft 433 kts 162°
2026-04-21 19:30 -5.86258 119.72334 21230 ft 436 kts 162°
2026-04-21 19:30 -5.89181 119.73185 21663 ft 439 kts 162°
2026-04-21 19:30 -5.92151 119.74050 22109 ft 443 kts 162°
2026-04-21 19:31 -5.95118 119.74915 22542 ft 446 kts 162°
2026-04-21 19:31 -5.98141 119.75795 22976 ft 449 kts 162°
2026-04-21 19:31 -6.01176 119.76679 23389 ft 452 kts 162°
2026-04-21 19:31 -6.04207 119.77563 23810 ft 455 kts 162°
2026-04-21 19:32 -6.07268 119.78455 24287 ft 457 kts 162°
2026-04-21 19:32 -6.10330 119.79348 24735 ft 459 kts 162°
2026-04-21 19:32 -6.13410 119.80247 25112 ft 462 kts 162°
2026-04-21 19:32 -6.16505 119.81149 25514 ft 464 kts 162°
2026-04-21 19:33 -6.18589 119.81758 25792 ft 465 kts 162°
2026-04-21 19:33 -6.22751 119.82973 26290 ft 469 kts 162°
2026-04-21 19:33 -6.25926 119.83901 26689 ft 471 kts 161°
2026-04-21 19:33 -6.29073 119.84820 27059 ft 473 kts 161°
2026-04-21 19:34 -6.32280 119.85757 27388 ft 477 kts 161°
2026-04-21 19:34 -6.35492 119.86696 27733 ft 479 kts 161°
2026-04-21 19:34 -6.38729 119.87641 28079 ft 482 kts 161°
2026-04-21 19:34 -6.41943 119.88580 28400 ft 484 kts 161°
2026-04-21 19:35 -6.45180 119.89527 28741 ft 486 kts 161°
2026-04-21 19:35 -6.51646 119.91415 29907 ft 479 kts 162°
2026-04-21 19:35 -6.54822 119.92343 30362 ft 477 kts 162°
2026-04-21 19:36 -6.58054 119.93288 30812 ft 476 kts 162°
2026-04-21 19:36 -6.61198 119.94207 31258 ft 475 kts 162°
2026-04-21 19:36 -6.64392 119.95142 31684 ft 473 kts 162°
2026-04-21 19:36 -6.67556 119.96066 32090 ft 472 kts 162°
2026-04-21 19:37 -6.70752 119.97000 32470 ft 472 kts 162°
2026-04-21 19:37 -6.73903 119.97922 32929 ft 470 kts 162°
2026-04-21 19:37 -6.77034 119.98840 33403 ft 468 kts 162°
2026-04-21 19:37 -6.80154 119.99753 33819 ft 466 kts 163°
2026-04-21 19:38 -6.83297 120.00674 34250 ft 464 kts 162°
2026-04-21 19:38 -6.86389 120.01738 34688 ft 462 kts 157°
2026-04-21 19:38 -6.89320 120.03100 35121 ft 459 kts 151°
2026-04-21 19:38 -6.92112 120.04783 35489 ft 457 kts 145°
2026-04-21 19:39 -6.94662 120.06723 35785 ft 457 kts 139°
2026-04-21 19:39 -6.96847 120.09058 35842 ft 458 kts 124°
2026-04-21 19:39 -6.98381 120.11839 35851 ft 459 kts 113°
2026-04-21 19:40 -7.00630 120.17837 35843 ft 456 kts 109°
2026-04-21 19:40 -7.02860 120.23789 35844 ft 456 kts 112°
2026-04-21 19:41 -7.05391 120.29642 35843 ft 456 kts 114°
2026-04-21 19:41 -7.08114 120.35403 35843 ft 457 kts 116°
2026-04-21 19:42 -7.10922 120.41129 35840 ft 456 kts 116°
2026-04-21 19:42 -7.13757 120.46851 35836 ft 456 kts 116°
2026-04-21 19:43 -7.16598 120.52576 35834 ft 455 kts 116°
2026-04-21 19:43 -7.19411 120.58250 35833 ft 456 kts 116°
2026-04-21 19:44 -7.22244 120.63969 35837 ft 456 kts 116°
2026-04-21 19:44 -7.25081 120.69699 35836 ft 457 kts 116°
2026-04-21 19:45 -7.27925 120.75449 35835 ft 457 kts 116°
2026-04-21 19:45 -7.30755 120.81173 35831 ft 457 kts 116°
2026-04-21 19:46 -7.33592 120.86913 35826 ft 457 kts 116°
2026-04-21 19:46 -7.36426 120.92650 35825 ft 457 kts 116°
2026-04-21 19:47 -7.39234 120.98335 35824 ft 456 kts 116°
2026-04-21 19:47 -7.42061 121.04062 35824 ft 455 kts 116°
2026-04-21 19:48 -7.44873 121.09759 35827 ft 456 kts 116°
2026-04-21 19:48 -7.47708 121.15506 35829 ft 457 kts 116°
2026-04-21 19:49 -7.50523 121.21214 35835 ft 457 kts 116°
2026-04-21 19:49 -7.53343 121.26933 35841 ft 457 kts 116°
2026-04-21 19:50 -7.55709 121.31737 35844 ft 456 kts 116°
2026-04-21 19:50 -7.58977 121.38373 35843 ft 456 kts 116°
2026-04-21 19:51 -7.61802 121.44111 35845 ft 457 kts 116°
2026-04-21 19:51 -7.64614 121.49824 35844 ft 455 kts 116°
2026-04-21 19:52 -7.67432 121.55553 35843 ft 454 kts 116°
2026-04-21 19:52 -7.70231 121.61243 35842 ft 454 kts 116°
2026-04-21 19:53 -7.73036 121.66949 35842 ft 454 kts 115°
2026-04-21 19:53 -7.75842 121.72659 35844 ft 457 kts 115°
2026-04-21 19:54 -7.78665 121.78406 35842 ft 456 kts 115°
2026-04-21 19:54 -7.81473 121.84126 35844 ft 455 kts 115°
2026-04-21 19:55 -7.84260 121.89805 35843 ft 455 kts 115°
2026-04-21 19:55 -7.87071 121.95536 35844 ft 456 kts 115°
2026-04-21 19:56 -7.89883 122.01270 35843 ft 456 kts 115°
2026-04-21 19:56 -7.92690 122.06997 35843 ft 456 kts 115°
2026-04-21 19:57 -7.95490 122.12711 35844 ft 456 kts 116°
2026-04-21 19:57 -7.98304 122.18458 35843 ft 456 kts 115°
2026-04-21 19:58 -8.01126 122.24221 35843 ft 456 kts 116°
2026-04-21 19:58 -8.03918 122.29926 35843 ft 456 kts 115°
2026-04-21 19:59 -8.06714 122.35642 35843 ft 455 kts 115°
2026-04-21 19:59 -8.09513 122.41368 35842 ft 455 kts 116°
2026-04-21 20:00 -8.12310 122.47091 35835 ft 455 kts 116°
2026-04-21 20:00 -8.15118 122.52839 35824 ft 456 kts 116°
2026-04-21 20:01 -8.17908 122.58553 35822 ft 456 kts 116°
2026-04-21 20:01 -8.20715 122.64302 35823 ft 455 kts 116°
2026-04-21 20:02 -8.23503 122.70017 35822 ft 455 kts 116°
2026-04-21 20:02 -8.26284 122.75719 35823 ft 455 kts 116°
2026-04-21 20:03 -8.29083 122.81462 35832 ft 455 kts 116°
2026-04-21 20:03 -8.31889 122.87221 35843 ft 455 kts 116°
2026-04-21 20:04 -8.34672 122.92934 35847 ft 455 kts 116°
2026-04-21 20:04 -8.37458 122.98659 35845 ft 455 kts 116°
2026-04-21 20:05 -8.40245 123.04385 35850 ft 455 kts 116°
2026-04-21 20:05 -8.43039 123.10127 35863 ft 455 kts 116°
2026-04-21 20:06 -8.45824 123.15855 35879 ft 455 kts 116°
2026-04-21 20:06 -8.48620 123.21609 35897 ft 455 kts 116°
2026-04-21 20:07 -8.51409 123.27351 35910 ft 455 kts 116°
2026-04-21 20:07 -8.54184 123.33069 35903 ft 455 kts 116°
2026-04-21 20:08 -8.56972 123.38814 35897 ft 455 kts 116°
2026-04-21 20:08 -8.59769 123.44578 35890 ft 455 kts 116°
2026-04-21 20:09 -8.62540 123.50294 35882 ft 454 kts 116°
2026-04-21 20:09 -8.65323 123.56036 35868 ft 454 kts 116°
2026-04-21 20:10 -8.68087 123.61742 35856 ft 454 kts 116°
2026-04-21 20:10 -8.70875 123.67499 35848 ft 454 kts 116°
2026-04-21 20:11 -8.73650 123.73231 35843 ft 455 kts 116°
2026-04-21 20:11 -8.76446 123.79005 35843 ft 457 kts 116°
2026-04-21 20:12 -8.79230 123.84757 35842 ft 455 kts 116°
2026-04-21 20:12 -8.82009 123.90504 35843 ft 453 kts 116°
2026-04-21 20:13 -8.84770 123.96221 35843 ft 454 kts 116°
2026-04-21 20:13 -8.87534 124.01944 35843 ft 456 kts 116°
2026-04-21 20:14 -8.90324 124.07724 35844 ft 456 kts 116°
2026-04-21 20:14 -8.93098 124.13470 35847 ft 456 kts 116°
2026-04-21 20:15 -8.95890 124.19257 35853 ft 456 kts 116°
2026-04-21 20:15 -8.98660 124.25001 35850 ft 455 kts 116°
2026-04-21 20:16 -9.01418 124.30727 35847 ft 454 kts 116°
2026-04-21 20:16 -9.04189 124.36483 35850 ft 454 kts 116°
2026-04-21 20:17 -9.06953 124.42231 35863 ft 454 kts 116°
2026-04-21 20:17 -9.09729 124.48003 35868 ft 454 kts 116°
2026-04-21 20:18 -9.12029 124.52786 35874 ft 455 kts 116°
2026-04-21 20:18 -9.15263 124.59514 35885 ft 456 kts 116°
2026-04-21 20:19 -9.18048 124.65308 35902 ft 455 kts 116°
2026-04-21 20:19 -9.20797 124.71035 35924 ft 453 kts 116°
2026-04-21 20:20 -9.23561 124.76796 35946 ft 454 kts 116°
2026-04-21 20:20 -9.26303 124.82515 35955 ft 454 kts 116°
2026-04-21 20:21 -9.29065 124.88277 35948 ft 453 kts 115°
2026-04-21 20:21 -9.31803 124.93986 35938 ft 454 kts 115°
2026-04-21 20:22 -9.34555 124.99725 35928 ft 454 kts 115°
2026-04-21 20:22 -9.38695 125.08373 35899 ft 455 kts 115°
2026-04-21 20:23 -9.41442 125.14114 35885 ft 454 kts 115°
2026-04-21 20:23 -9.44196 125.19873 35871 ft 453 kts 115°
2026-04-21 20:24 -9.46932 125.25601 35860 ft 453 kts 115°
2026-04-21 20:24 -9.49677 125.31348 35855 ft 454 kts 115°
2026-04-21 20:25 -9.52431 125.37116 35852 ft 454 kts 115°
2026-04-21 20:25 -9.55174 125.42866 35853 ft 455 kts 115°
2026-04-21 20:26 -9.57908 125.48600 35853 ft 455 kts 115°
2026-04-21 20:26 -9.60656 125.54366 35853 ft 454 kts 115°
2026-04-21 20:27 -9.63413 125.60149 35852 ft 454 kts 115°
2026-04-21 20:27 -9.66145 125.65884 35850 ft 454 kts 115°
2026-04-21 20:28 -9.68885 125.71641 35848 ft 454 kts 115°
2026-04-21 20:28 -9.71618 125.77387 35844 ft 454 kts 115°
2026-04-21 20:29 -9.74371 125.83178 35844 ft 454 kts 115°
2026-04-21 20:29 -9.77106 125.88934 35844 ft 454 kts 115°
2026-04-21 20:30 -9.79843 125.94698 35845 ft 454 kts 115°
2026-04-21 20:30 -9.82588 126.00481 35845 ft 455 kts 115°
2026-04-21 20:31 -9.85324 126.06249 35847 ft 454 kts 115°
2026-04-21 20:31 -9.88046 126.11990 35843 ft 454 kts 115°
2026-04-21 20:32 -9.90940 126.17673 35852 ft 454 kts 118°
2026-04-21 20:32 -9.94025 126.23276 35857 ft 453 kts 118°
2026-04-21 20:33 -9.97121 126.28851 35855 ft 454 kts 118°
2026-04-21 20:33 -10.00197 126.34438 35857 ft 454 kts 118°
2026-04-21 20:34 -10.03265 126.40052 35848 ft 454 kts 118°
2026-04-21 20:34 -10.06308 126.45643 35843 ft 453 kts 118°
2026-04-21 20:35 -10.09349 126.51240 35845 ft 453 kts 118°
2026-04-21 20:35 -10.12413 126.56883 35843 ft 453 kts 118°
2026-04-21 20:36 -10.15443 126.62470 35844 ft 453 kts 118°
2026-04-21 20:36 -10.18495 126.68101 35844 ft 453 kts 118°
2026-04-21 20:37 -10.21549 126.73738 35843 ft 453 kts 118°
2026-04-21 20:37 -10.24582 126.79342 35842 ft 453 kts 118°
2026-04-21 20:38 -10.27615 126.84947 35842 ft 453 kts 117°
2026-04-21 20:38 -10.30642 126.90543 35842 ft 453 kts 117°
2026-04-21 20:39 -10.33681 126.96167 35842 ft 453 kts 117°
2026-04-21 20:39 -10.36719 127.01791 35843 ft 453 kts 118°
2026-04-21 20:40 -10.39727 127.07362 35842 ft 453 kts 118°
2026-04-21 20:40 -10.42827 127.12923 35841 ft 452 kts 121°
2026-04-21 20:41 -10.46522 127.18111 35843 ft 453 kts 127°
2026-04-21 20:41 -10.50520 127.23068 35845 ft 454 kts 129°
2026-04-21 20:42 -10.54555 127.27975 35846 ft 454 kts 129°
2026-04-21 20:42 -10.58585 127.32913 35844 ft 453 kts 129°
2026-04-21 20:43 -10.62603 127.37880 35842 ft 453 kts 128°
2026-04-21 20:43 -10.66597 127.42843 35843 ft 453 kts 128°
2026-04-21 20:44 -10.70566 127.47789 35843 ft 453 kts 128°
2026-04-21 20:44 -10.74561 127.52773 35843 ft 453 kts 128°
2026-04-21 20:45 -10.78538 127.57742 35842 ft 452 kts 128°
2026-04-21 20:45 -10.82513 127.62709 35841 ft 453 kts 128°
2026-04-21 20:46 -10.86479 127.67668 35842 ft 453 kts 128°
2026-04-21 20:46 -10.90469 127.72659 35845 ft 452 kts 128°
2026-04-21 20:47 -10.94433 127.77620 35856 ft 453 kts 128°
2026-04-21 20:47 -10.98398 127.82584 35863 ft 452 kts 128°
2026-04-21 20:48 -11.02369 127.87558 35863 ft 452 kts 128°
2026-04-21 20:48 -11.06350 127.92545 35864 ft 452 kts 128°
2026-04-21 20:49 -11.10321 127.97524 35862 ft 452 kts 128°
2026-04-21 20:49 -11.14276 128.02486 35862 ft 452 kts 128°
2026-04-21 20:50 -11.18229 128.07446 35863 ft 453 kts 128°
2026-04-21 20:50 -11.22211 128.12447 35863 ft 453 kts 128°
2026-04-21 20:51 -11.26195 128.17452 35864 ft 454 kts 128°
2026-04-21 20:51 -11.30185 128.22467 35862 ft 455 kts 128°
2026-04-21 20:52 -11.34168 128.27475 35864 ft 454 kts 128°
2026-04-21 20:52 -11.38141 128.32472 35863 ft 455 kts 128°
2026-04-21 20:53 -11.42117 128.37476 35863 ft 456 kts 128°
2026-04-21 20:53 -11.46114 128.42509 35862 ft 456 kts 128°
2026-04-21 20:54 -11.50103 128.47534 35863 ft 457 kts 128°
2026-04-21 20:54 -11.54095 128.52565 35863 ft 457 kts 128°
2026-04-21 20:55 -11.58117 128.57638 35864 ft 457 kts 128°
2026-04-21 20:55 -11.62092 128.62654 35863 ft 457 kts 128°
2026-04-21 20:56 -11.66100 128.67714 35862 ft 458 kts 128°
2026-04-21 20:56 -11.70104 128.72772 35862 ft 459 kts 128°
2026-04-21 20:57 -11.74116 128.77840 35862 ft 457 kts 128°
2026-04-21 20:57 -11.78111 128.82892 35862 ft 459 kts 128°
2026-04-21 20:58 -11.82130 128.87975 35861 ft 458 kts 128°
2026-04-21 20:58 -11.86140 128.93048 35857 ft 459 kts 128°
2026-04-21 20:59 -11.90135 128.98108 35860 ft 459 kts 128°
2026-04-21 20:59 -11.94152 129.03197 35862 ft 460 kts 129°
2026-04-21 21:00 -11.98145 129.08260 35863 ft 459 kts 128°
2026-04-21 21:00 -12.02161 129.13354 35864 ft 459 kts 128°
2026-04-21 21:01 -12.06141 129.18404 35863 ft 459 kts 128°
2026-04-21 21:01 -12.10144 129.23492 35864 ft 459 kts 128°
2026-04-21 21:02 -12.14156 129.28613 35870 ft 460 kts 128°
2026-04-21 21:02 -12.18159 129.33727 35875 ft 460 kts 129°
2026-04-21 21:03 -12.22178 129.38860 35879 ft 460 kts 129°
2026-04-21 21:03 -12.26179 129.43973 35884 ft 461 kts 129°
2026-04-21 21:04 -12.30196 129.49109 35883 ft 461 kts 129°
2026-04-21 21:04 -12.34214 129.54250 35884 ft 461 kts 129°
2026-04-21 21:05 -12.38213 129.59367 35884 ft 461 kts 129°
2026-04-21 21:05 -12.42215 129.64493 35884 ft 461 kts 129°
2026-04-21 21:06 -12.46236 129.69644 35885 ft 460 kts 128°
2026-04-21 21:06 -12.50241 129.74779 35882 ft 460 kts 128°
2026-04-21 21:07 -12.54239 129.79906 35875 ft 460 kts 128°
2026-04-21 21:07 -12.58225 129.85022 35876 ft 460 kts 128°
2026-04-21 21:08 -12.62229 129.90163 35876 ft 460 kts 128°
2026-04-21 21:08 -12.66206 129.95273 35876 ft 460 kts 128°
2026-04-21 21:09 -12.70196 130.00401 35880 ft 461 kts 128°
2026-04-21 21:09 -12.74216 130.05571 35885 ft 461 kts 128°
2026-04-21 21:10 -12.78193 130.10689 35881 ft 461 kts 128°
2026-04-21 21:10 -12.82174 130.15814 35885 ft 460 kts 128°
2026-04-21 21:11 -12.86184 130.20981 35886 ft 461 kts 128°
2026-04-21 21:11 -12.90154 130.26099 35889 ft 461 kts 128°
2026-04-21 21:12 -12.94144 130.31244 35893 ft 462 kts 128°
2026-04-21 21:12 -12.98190 130.36464 35895 ft 461 kts 129°
2026-04-21 21:13 -13.02170 130.41605 35901 ft 462 kts 129°
2026-04-21 21:13 -13.06177 130.46780 35902 ft 462 kts 129°
2026-04-21 21:14 -13.10166 130.51938 35905 ft 462 kts 129°
2026-04-21 21:14 -13.14145 130.57085 35909 ft 462 kts 129°
2026-04-21 21:15 -13.18146 130.62264 35910 ft 462 kts 129°
2026-04-21 21:15 -13.22150 130.67448 35914 ft 462 kts 129°
2026-04-21 21:16 -13.26127 130.72601 35916 ft 463 kts 129°
2026-04-21 21:16 -13.30125 130.77786 35919 ft 463 kts 129°
2026-04-21 21:17 -13.34111 130.82956 35924 ft 463 kts 129°
2026-04-21 21:17 -13.38116 130.88156 35927 ft 463 kts 129°
2026-04-21 21:18 -13.42110 130.93343 35931 ft 463 kts 129°
2026-04-21 21:18 -13.46095 130.98520 35935 ft 462 kts 129°
2026-04-21 21:19 -13.50095 131.03722 35936 ft 463 kts 129°
2026-04-21 21:19 -13.54092 131.08923 35938 ft 464 kts 129°
2026-04-21 21:20 -13.58085 131.14122 35936 ft 464 kts 129°
2026-04-21 21:20 -13.62078 131.19322 35936 ft 464 kts 129°
2026-04-21 21:21 -13.66083 131.24539 35937 ft 464 kts 129°
2026-04-21 21:21 -13.70075 131.29738 35935 ft 464 kts 129°
2026-04-21 21:22 -13.74081 131.34958 35934 ft 463 kts 129°
2026-04-21 21:22 -13.78053 131.40135 35935 ft 464 kts 129°
2026-04-21 21:23 -13.82073 131.45380 35938 ft 464 kts 129°
2026-04-21 21:23 -13.86071 131.50598 35937 ft 464 kts 129°
2026-04-21 21:24 -13.90060 131.55809 35941 ft 464 kts 129°
2026-04-21 21:24 -13.94052 131.61026 35945 ft 464 kts 129°
2026-04-21 21:25 -13.98078 131.66290 35948 ft 465 kts 129°
2026-04-21 21:25 -14.02055 131.71495 35950 ft 464 kts 129°
2026-04-21 21:26 -14.06076 131.76761 35950 ft 464 kts 129°
2026-04-21 21:26 -14.10060 131.81981 35949 ft 464 kts 129°
2026-04-21 21:27 -14.14054 131.87218 35948 ft 464 kts 129°
2026-04-21 21:27 -14.18054 131.92465 35948 ft 465 kts 129°
2026-04-21 21:28 -14.22036 131.97694 35945 ft 465 kts 129°
2026-04-21 21:29 -14.28061 132.05612 35944 ft 466 kts 129°
2026-04-21 21:29 -14.32063 132.10875 35947 ft 466 kts 129°
2026-04-21 21:30 -14.36035 132.16101 35958 ft 465 kts 129°
2026-04-21 21:30 -14.40012 132.21338 35964 ft 465 kts 129°
2026-04-21 21:31 -14.44023 132.26622 35962 ft 465 kts 129°
2026-04-21 21:31 -14.47993 132.31856 35959 ft 466 kts 130°
2026-04-21 21:32 -14.51983 132.37118 35960 ft 465 kts 130°
2026-04-21 21:32 -14.55957 132.42445 35961 ft 466 kts 129°
2026-04-21 21:33 -14.59863 132.47766 35962 ft 466 kts 129°
2026-04-21 21:33 -14.63770 132.53099 35961 ft 467 kts 129°
2026-04-21 21:34 -14.67692 132.58446 35963 ft 467 kts 129°
2026-04-21 21:34 -14.71606 132.63776 35960 ft 466 kts 129°
2026-04-21 21:35 -14.75527 132.69116 35963 ft 467 kts 129°
2026-04-21 21:35 -14.79463 132.74477 35964 ft 467 kts 129°
2026-04-21 21:36 -14.83368 132.79800 35966 ft 467 kts 129°
2026-04-21 21:36 -14.87288 132.85147 35967 ft 467 kts 129°
2026-04-21 21:37 -14.91231 132.90530 35968 ft 468 kts 129°
2026-04-21 21:37 -14.95144 132.95877 35966 ft 468 kts 129°
2026-04-21 21:38 -14.99055 133.01224 35966 ft 468 kts 129°
2026-04-21 21:38 -15.02995 133.06612 35965 ft 470 kts 129°
2026-04-21 21:39 -15.06941 133.12012 35962 ft 469 kts 129°
2026-04-21 21:39 -15.10867 133.17389 35962 ft 468 kts 129°
2026-04-21 21:40 -15.14776 133.22748 35965 ft 468 kts 129°
2026-04-21 21:40 -15.18709 133.28143 35965 ft 468 kts 129°
2026-04-21 21:41 -15.22631 133.33527 35966 ft 468 kts 129°
2026-04-21 21:41 -15.26522 133.38870 35967 ft 468 kts 129°
2026-04-21 21:42 -15.30465 133.44289 35970 ft 468 kts 129°
2026-04-21 21:42 -15.34365 133.49652 35972 ft 469 kts 129°
2026-04-21 21:43 -15.38293 133.55061 35973 ft 468 kts 129°
2026-04-21 21:43 -15.42204 133.60449 35976 ft 467 kts 129°
2026-04-21 21:44 -15.46093 133.65810 35976 ft 468 kts 129°
2026-04-21 21:44 -15.50005 133.71205 35977 ft 467 kts 129°
2026-04-21 21:45 -15.53915 133.76601 35976 ft 468 kts 129°
2026-04-21 21:45 -15.57808 133.81976 35978 ft 468 kts 129°
2026-04-21 21:46 -15.61725 133.87393 35979 ft 468 kts 129°
2026-04-21 21:46 -15.65617 133.92776 35976 ft 468 kts 129°
2026-04-21 21:47 -15.69505 133.98158 35976 ft 467 kts 129°
2026-04-21 21:47 -15.73405 134.03561 35978 ft 467 kts 129°
2026-04-21 21:48 -15.77281 134.08933 35981 ft 467 kts 129°
2026-04-21 21:48 -15.81178 134.14339 35984 ft 466 kts 129°
2026-04-21 21:49 -15.85057 134.19725 35986 ft 468 kts 129°
2026-04-21 21:49 -15.88954 134.25139 35989 ft 468 kts 129°
2026-04-21 21:50 -15.92849 134.30556 35987 ft 468 kts 129°
2026-04-21 21:50 -15.96750 134.35982 35990 ft 467 kts 129°
2026-04-21 21:51 -16.00627 134.41382 35990 ft 467 kts 129°
2026-04-21 21:51 -16.04525 134.46812 35988 ft 467 kts 129°
2026-04-21 21:52 -16.08381 134.52194 35989 ft 467 kts 129°
2026-04-21 21:52 -16.12276 134.57636 35989 ft 468 kts 129°
2026-04-21 21:53 -16.16164 134.63074 35992 ft 468 kts 129°
2026-04-21 21:53 -16.20053 134.68517 35995 ft 468 kts 129°
2026-04-21 21:54 -16.23935 134.73955 35992 ft 468 kts 129°
2026-04-21 21:54 -16.27815 134.79393 35995 ft 468 kts 129°
2026-04-21 21:55 -16.31696 134.84837 35994 ft 468 kts 129°
2026-04-21 21:55 -16.35608 134.90328 35995 ft 470 kts 129°
2026-04-21 21:56 -16.39485 134.95773 35993 ft 469 kts 129°
2026-04-21 21:56 -16.43358 135.01216 35995 ft 469 kts 129°
2026-04-21 21:57 -16.47249 135.06691 35995 ft 469 kts 129°
2026-04-21 21:57 -16.51119 135.12138 35993 ft 469 kts 129°
2026-04-21 21:58 -16.55017 135.17631 35997 ft 469 kts 129°
2026-04-21 21:58 -16.58898 135.23102 35999 ft 468 kts 129°
2026-04-21 21:59 -16.62747 135.28532 35999 ft 469 kts 129°
2026-04-21 21:59 -16.66633 135.34019 36000 ft 470 kts 129°
2026-04-21 22:00 -16.70500 135.39487 36001 ft 470 kts 129°
2026-04-21 22:00 -16.74390 135.44989 35999 ft 470 kts 129°
2026-04-21 22:01 -16.78273 135.50484 36001 ft 471 kts 129°
2026-04-21 22:01 -16.82144 135.55968 36003 ft 470 kts 129°
2026-04-21 22:02 -16.86024 135.61469 36006 ft 470 kts 129°
2026-04-21 22:02 -16.89901 135.66971 36005 ft 470 kts 128°
2026-04-21 22:03 -16.93805 135.72513 36005 ft 470 kts 128°
2026-04-21 22:03 -16.97666 135.78000 36007 ft 470 kts 128°
2026-04-21 22:04 -17.01559 135.83536 36007 ft 470 kts 128°
2026-04-21 22:04 -17.05436 135.89055 36007 ft 470 kts 128°
2026-04-21 22:05 -17.09296 135.94553 36009 ft 470 kts 129°
2026-04-21 22:05 -17.13167 136.00072 36012 ft 471 kts 129°
2026-04-21 22:06 -17.17030 136.05585 36009 ft 471 kts 129°
2026-04-21 22:06 -17.20922 136.11140 36020 ft 472 kts 129°
2026-04-21 22:07 -17.24770 136.16640 36023 ft 472 kts 129°
2026-04-21 22:07 -17.28658 136.22201 36023 ft 471 kts 129°
2026-04-21 22:08 -17.32502 136.27702 36026 ft 471 kts 129°
2026-04-21 22:08 -17.36360 136.33229 36028 ft 470 kts 129°
2026-04-21 22:09 -17.40217 136.38757 36033 ft 472 kts 129°
2026-04-21 22:09 -17.44068 136.44284 36034 ft 472 kts 129°
2026-04-21 22:10 -17.47935 136.49835 36039 ft 472 kts 129°
2026-04-21 22:10 -17.51811 136.55406 36043 ft 473 kts 129°
2026-04-21 22:11 -17.55681 136.60971 36047 ft 473 kts 129°
2026-04-21 22:11 -17.59534 136.66519 36047 ft 473 kts 129°
2026-04-21 22:12 -17.63434 136.72136 36052 ft 474 kts 129°
2026-04-21 22:12 -17.67316 136.77734 36052 ft 475 kts 129°
2026-04-21 22:13 -17.71193 136.83331 36052 ft 474 kts 129°
2026-04-21 22:13 -17.75084 136.88953 36050 ft 474 kts 129°
2026-04-21 22:14 -17.78956 136.94550 36053 ft 475 kts 129°
2026-04-21 22:14 -17.82838 137.00166 36056 ft 474 kts 129°
2026-04-21 22:15 -17.86719 137.05786 36054 ft 475 kts 129°
2026-04-21 22:15 -17.90589 137.11392 36056 ft 476 kts 129°
2026-04-21 22:16 -17.94472 137.17021 36055 ft 476 kts 129°
2026-04-21 22:16 -17.98353 137.22656 36053 ft 477 kts 129°
2026-04-21 22:17 -18.02243 137.28310 36057 ft 477 kts 129°
2026-04-21 22:17 -18.06096 137.33914 36054 ft 476 kts 129°
2026-04-21 22:18 -18.09965 137.39545 36058 ft 476 kts 129°
2026-04-21 22:18 -18.13863 137.45222 36057 ft 477 kts 129°
2026-04-21 22:19 -18.17712 137.50833 36055 ft 478 kts 129°
2026-04-21 22:19 -18.21587 137.56490 36058 ft 477 kts 129°
2026-04-21 22:20 -18.25458 137.62144 36055 ft 477 kts 129°
2026-04-21 22:20 -18.29342 137.67824 36057 ft 477 kts 129°
2026-04-21 22:21 -18.33226 137.73503 36058 ft 478 kts 129°
2026-04-21 22:21 -18.37100 137.79175 36066 ft 479 kts 129°
2026-04-21 22:22 -18.40981 137.84863 36070 ft 479 kts 129°
2026-04-21 22:22 -18.44892 137.90601 36070 ft 480 kts 129°
2026-04-21 22:23 -18.48793 137.96326 36072 ft 479 kts 129°
2026-04-21 22:23 -18.52665 138.02017 36075 ft 481 kts 129°
2026-04-21 22:24 -18.56574 138.07767 36071 ft 481 kts 129°
2026-04-21 22:24 -18.60427 138.13441 36070 ft 478 kts 130°
2026-04-21 22:25 -18.64315 138.19171 36068 ft 480 kts 130°
2026-04-21 22:25 -18.68186 138.24883 36068 ft 480 kts 130°
2026-04-21 22:26 -18.72068 138.30615 36068 ft 482 kts 130°
2026-04-21 22:26 -18.75953 138.36357 36069 ft 481 kts 130°
2026-04-21 22:27 -18.79850 138.42123 36067 ft 480 kts 130°
2026-04-21 22:27 -18.83728 138.47867 36071 ft 480 kts 130°
2026-04-21 22:28 -18.87583 138.53581 36071 ft 479 kts 130°
2026-04-21 22:28 -18.91457 138.59326 36070 ft 481 kts 130°
2026-04-21 22:29 -18.95329 138.65077 36067 ft 479 kts 129°
2026-04-21 22:29 -18.99200 138.70830 36066 ft 480 kts 129°
2026-04-21 22:30 -19.03061 138.76572 36066 ft 481 kts 129°
2026-04-21 22:30 -19.06954 138.82369 36072 ft 481 kts 129°
2026-04-21 22:31 -19.10826 138.88138 36074 ft 481 kts 129°
2026-04-21 22:31 -19.14683 138.93890 36077 ft 481 kts 129°
2026-04-21 22:32 -19.18546 138.99660 36088 ft 481 kts 129°
2026-04-21 22:32 -19.22433 139.05469 36087 ft 482 kts 129°
2026-04-21 22:33 -19.26306 139.11264 36092 ft 481 kts 129°
2026-04-21 22:33 -19.30188 139.17076 36098 ft 482 kts 129°
2026-04-21 22:34 -19.34078 139.22906 36094 ft 482 kts 129°
2026-04-21 22:34 -19.37931 139.28688 36100 ft 481 kts 129°
2026-04-21 22:35 -19.41787 139.34476 36102 ft 482 kts 129°
2026-04-21 22:35 -19.45645 139.40276 36103 ft 481 kts 129°
2026-04-21 22:36 -19.51438 139.48993 36107 ft 483 kts 129°
2026-04-21 22:36 -19.55301 139.54811 36107 ft 483 kts 130°
2026-04-21 22:37 -19.59165 139.60638 36109 ft 482 kts 129°
2026-04-21 22:37 -19.63007 139.66438 36109 ft 482 kts 129°
2026-04-21 22:38 -19.66881 139.72288 36111 ft 484 kts 129°
2026-04-21 22:38 -19.70763 139.78160 36109 ft 484 kts 129°
2026-04-21 22:39 -19.74623 139.84006 36115 ft 483 kts 129°
2026-04-21 22:39 -19.78471 139.89836 36115 ft 483 kts 129°
2026-04-21 22:40 -19.82325 139.95680 36116 ft 484 kts 129°
2026-04-21 22:40 -19.86185 140.01541 36117 ft 484 kts 129°
2026-04-21 22:41 -19.90052 140.07420 36114 ft 484 kts 129°
2026-04-21 22:41 -19.93900 140.13274 36114 ft 484 kts 129°
2026-04-21 22:42 -19.97749 140.19135 36114 ft 483 kts 129°
2026-04-21 22:42 -20.01597 140.25000 36117 ft 484 kts 129°
2026-04-21 22:43 -20.05446 140.30873 36118 ft 485 kts 130°
2026-04-21 22:43 -20.09307 140.36769 36116 ft 483 kts 130°
2026-04-21 22:44 -20.13128 140.42612 36115 ft 484 kts 130°
2026-04-21 22:44 -20.16993 140.48526 36115 ft 483 kts 130°
2026-04-21 22:45 -20.20808 140.54372 36117 ft 485 kts 129°
2026-04-21 22:45 -20.24650 140.60263 36117 ft 485 kts 129°
2026-04-21 22:46 -20.28496 140.66170 36118 ft 483 kts 129°
2026-04-21 22:46 -20.32334 140.72067 36118 ft 485 kts 129°
2026-04-21 22:47 -20.36180 140.77982 36118 ft 486 kts 129°
2026-04-21 22:47 -20.40005 140.83872 36118 ft 486 kts 129°
2026-04-21 22:48 -20.43864 140.89821 36120 ft 485 kts 129°
2026-04-21 22:48 -20.47699 140.95737 36118 ft 487 kts 129°
2026-04-21 22:49 -20.51552 141.01688 36117 ft 487 kts 129°
2026-04-21 22:49 -20.55374 141.07597 36118 ft 486 kts 129°
2026-04-21 22:50 -20.59223 141.13556 36117 ft 486 kts 129°
2026-04-21 22:50 -20.63057 141.19496 36119 ft 487 kts 129°
2026-04-21 22:51 -20.66893 141.25446 36118 ft 486 kts 129°
2026-04-21 22:51 -20.70736 141.31410 36118 ft 487 kts 129°
2026-04-21 22:52 -20.74549 141.37337 36118 ft 486 kts 129°
2026-04-21 22:52 -20.78389 141.43309 36117 ft 489 kts 129°
2026-04-21 22:53 -20.82244 141.49316 36115 ft 487 kts 129°
2026-04-21 22:53 -20.86068 141.55278 36116 ft 489 kts 129°
2026-04-21 22:54 -20.89911 141.61276 36117 ft 488 kts 129°
2026-04-21 22:54 -20.93729 141.67244 36118 ft 487 kts 129°
2026-04-21 22:55 -20.97554 141.73227 36117 ft 488 kts 129°
2026-04-21 22:55 -21.01399 141.79250 36117 ft 487 kts 129°
2026-04-21 22:56 -21.05224 141.85245 36120 ft 488 kts 129°
2026-04-21 22:56 -21.09049 141.91248 36120 ft 487 kts 129°
2026-04-21 22:57 -21.12855 141.97226 36127 ft 488 kts 129°
2026-04-21 22:57 -21.16675 142.03236 36126 ft 486 kts 129°
2026-04-21 22:58 -21.20477 142.09221 36126 ft 487 kts 129°
2026-04-21 22:58 -21.24275 142.15205 36130 ft 487 kts 129°
2026-04-21 22:59 -21.28070 142.21191 36130 ft 487 kts 129°
2026-04-21 22:59 -21.31881 142.27211 36132 ft 487 kts 129°
2026-04-21 23:00 -21.35673 142.33205 36135 ft 487 kts 129°
2026-04-21 23:00 -21.39471 142.39218 36138 ft 486 kts 130°
2026-04-21 23:01 -21.43261 142.45224 36135 ft 487 kts 129°
2026-04-21 23:01 -21.47043 142.51221 36141 ft 486 kts 129°
2026-04-21 23:02 -21.50816 142.57213 36142 ft 486 kts 130°
2026-04-21 23:02 -21.54582 142.63200 36146 ft 485 kts 130°
2026-04-21 23:03 -21.58359 142.69211 36144 ft 485 kts 129°
2026-04-21 23:03 -21.62150 142.75249 36147 ft 486 kts 129°
2026-04-21 23:04 -21.65897 142.81224 36146 ft 485 kts 129°
2026-04-21 23:04 -21.69678 142.87262 36149 ft 487 kts 129°
2026-04-21 23:05 -21.73449 142.93289 36154 ft 485 kts 129°
2026-04-21 23:05 -21.77194 142.99283 36156 ft 485 kts 129°
2026-04-21 23:06 -21.80952 143.05304 36156 ft 484 kts 129°
2026-04-21 23:06 -21.84687 143.11293 36156 ft 484 kts 130°
2026-04-21 23:07 -21.88427 143.17294 36154 ft 484 kts 130°
2026-04-21 23:07 -21.92180 143.23326 36158 ft 483 kts 130°
2026-04-21 23:08 -21.95924 143.29346 36157 ft 486 kts 129°
2026-04-21 23:08 -21.99673 143.35384 36159 ft 485 kts 130°
2026-04-21 23:09 -22.03395 143.41389 36159 ft 484 kts 130°
2026-04-21 23:09 -22.07149 143.47450 36163 ft 485 kts 130°
2026-04-21 23:10 -22.10871 143.53470 36168 ft 484 kts 130°
2026-04-21 23:10 -22.14620 143.59537 36173 ft 484 kts 130°
2026-04-21 23:11 -22.18332 143.65553 36175 ft 483 kts 130°
2026-04-21 23:11 -22.22066 143.71606 36176 ft 485 kts 129°
2026-04-21 23:12 -22.25791 143.77655 36177 ft 485 kts 130°
2026-04-21 23:12 -22.29525 143.83727 36180 ft 485 kts 130°
2026-04-21 23:13 -22.33255 143.89796 36180 ft 484 kts 130°
2026-04-21 23:13 -22.36960 143.95837 36179 ft 484 kts 130°
2026-04-21 23:14 -22.40674 144.01891 36176 ft 485 kts 130°
2026-04-21 23:14 -22.44393 144.07965 36178 ft 485 kts 130°
2026-04-21 23:15 -22.48109 144.14041 36177 ft 484 kts 130°
2026-04-21 23:15 -22.51798 144.20082 36177 ft 483 kts 130°
2026-04-21 23:16 -22.55503 144.26152 36177 ft 484 kts 130°
2026-04-21 23:16 -22.59200 144.32219 36175 ft 484 kts 130°
2026-04-21 23:17 -22.62901 144.38298 36174 ft 484 kts 130°
2026-04-21 23:17 -22.66585 144.44356 36173 ft 484 kts 130°
2026-04-21 23:18 -22.70287 144.50449 36175 ft 483 kts 130°
2026-04-21 23:18 -22.73972 144.56522 36175 ft 485 kts 130°
2026-04-21 23:19 -22.77655 144.62599 36173 ft 483 kts 130°
2026-04-21 23:19 -22.81350 144.68704 36178 ft 484 kts 130°
2026-04-21 23:20 -22.85023 144.74780 36179 ft 483 kts 130°
2026-04-21 23:20 -22.88696 144.80864 36175 ft 482 kts 130°
2026-04-21 23:21 -22.92364 144.86945 36178 ft 482 kts 130°
2026-04-21 23:21 -22.96010 144.92995 36180 ft 481 kts 130°
2026-04-21 23:22 -22.99686 144.99101 36176 ft 483 kts 130°
2026-04-21 23:22 -23.03336 145.05173 36178 ft 482 kts 130°
2026-04-21 23:23 -23.06974 145.11237 36182 ft 481 kts 130°
2026-04-21 23:23 -23.10639 145.17346 36178 ft 482 kts 130°
2026-04-21 23:24 -23.14296 145.23451 36179 ft 482 kts 130°
2026-04-21 23:24 -23.17943 145.29547 36181 ft 482 kts 130°
2026-04-21 23:25 -23.21590 145.35649 36182 ft 483 kts 130°
2026-04-21 23:25 -23.25252 145.41783 36180 ft 484 kts 130°
2026-04-21 23:26 -23.28898 145.47902 36182 ft 483 kts 130°
2026-04-21 23:26 -23.32521 145.53990 36187 ft 482 kts 130°
2026-04-21 23:27 -23.36184 145.60147 36185 ft 483 kts 130°
2026-04-21 23:27 -23.39819 145.66269 36187 ft 481 kts 130°
2026-04-21 23:28 -23.43440 145.72371 36189 ft 483 kts 130°
2026-04-21 23:28 -23.47065 145.78490 36192 ft 483 kts 130°
2026-04-21 23:29 -23.50708 145.84647 36189 ft 482 kts 130°
2026-04-21 23:29 -23.54320 145.90755 36193 ft 482 kts 130°
2026-04-21 23:30 -23.57947 145.96902 36196 ft 481 kts 130°
2026-04-21 23:30 -23.61577 146.03053 36197 ft 483 kts 130°
2026-04-21 23:31 -23.65190 146.09186 36199 ft 482 kts 130°
2026-04-21 23:31 -23.68804 146.15338 36199 ft 482 kts 130°
2026-04-21 23:32 -23.72420 146.21503 36202 ft 482 kts 130°
2026-04-21 23:32 -23.76030 146.27666 36200 ft 482 kts 130°
2026-04-21 23:33 -23.79625 146.33812 36202 ft 481 kts 130°
2026-04-21 23:33 -23.83223 146.39964 36203 ft 481 kts 130°
2026-04-21 23:34 -23.86812 146.46109 36203 ft 482 kts 130°
2026-04-21 23:34 -23.90415 146.52290 36207 ft 481 kts 131°
2026-04-21 23:35 -23.93997 146.58440 36214 ft 481 kts 131°
2026-04-21 23:35 -23.97600 146.64635 36221 ft 482 kts 131°
2026-04-21 23:36 -24.01184 146.70804 36220 ft 481 kts 130°
2026-04-21 23:36 -24.04772 146.76981 36223 ft 484 kts 130°
2026-04-21 23:37 -24.08368 146.83192 36226 ft 481 kts 130°
2026-04-21 23:37 -24.11972 146.89424 36226 ft 482 kts 131°
2026-04-21 23:38 -24.15562 146.95633 36228 ft 484 kts 130°
2026-04-21 23:38 -24.19142 147.01836 36230 ft 481 kts 130°
2026-04-21 23:39 -24.22718 147.08038 36226 ft 482 kts 130°
2026-04-21 23:39 -24.26296 147.14250 36225 ft 482 kts 130°
2026-04-21 23:40 -24.29856 147.20444 36222 ft 481 kts 130°
2026-04-21 23:40 -24.33434 147.26669 36221 ft 482 kts 131°
2026-04-21 23:41 -24.36972 147.32840 36220 ft 480 kts 130°
2026-04-21 23:41 -24.40545 147.39076 36220 ft 481 kts 130°
2026-04-21 23:42 -24.44090 147.45271 36220 ft 480 kts 130°
2026-04-21 23:42 -24.47633 147.51468 36222 ft 481 kts 131°
2026-04-21 23:43 -24.51194 147.57710 36225 ft 480 kts 131°
2026-04-21 23:43 -24.54741 147.63931 36233 ft 481 kts 131°
2026-04-21 23:44 -24.58274 147.70140 36241 ft 481 kts 130°
2026-04-21 23:44 -24.61816 147.76366 36245 ft 482 kts 130°
2026-04-21 23:45 -24.67098 147.85673 36249 ft 481 kts 130°
2026-04-21 23:46 -24.70655 147.91946 36253 ft 480 kts 130°
2026-04-21 23:46 -24.74161 147.98143 36253 ft 482 kts 130°
2026-04-21 23:47 -24.77692 148.04387 36255 ft 481 kts 130°
2026-04-21 23:47 -24.81200 148.10605 36250 ft 480 kts 130°
2026-04-21 23:48 -24.84727 148.16866 36250 ft 479 kts 130°
2026-04-21 23:48 -24.88225 148.23074 36247 ft 479 kts 130°
2026-04-21 23:49 -24.91733 148.29312 36244 ft 481 kts 130°
2026-04-21 23:49 -24.95234 148.35551 36240 ft 478 kts 131°
2026-04-21 23:50 -24.98746 148.41806 36234 ft 481 kts 131°
2026-04-21 23:50 -25.02258 148.48077 36231 ft 479 kts 131°
2026-04-21 23:51 -25.05736 148.54295 36230 ft 480 kts 130°
2026-04-21 23:51 -25.09240 148.60564 36232 ft 481 kts 130°
2026-04-21 23:52 -25.12738 148.66836 36230 ft 480 kts 130°
2026-04-21 23:52 -25.16249 148.73135 36227 ft 481 kts 130°
2026-04-21 23:53 -25.19745 148.79419 36227 ft 480 kts 130°
2026-04-21 23:53 -25.23226 148.85684 36231 ft 481 kts 130°
2026-04-21 23:54 -25.26708 148.91965 36230 ft 478 kts 130°
2026-04-21 23:54 -25.30179 148.98225 36236 ft 481 kts 130°
2026-04-21 23:55 -25.33649 149.04492 36236 ft 477 kts 130°
2026-04-21 23:55 -25.37100 149.10739 36231 ft 477 kts 130°
2026-04-21 23:56 -25.40576 149.17032 36229 ft 478 kts 130°
2026-04-21 23:56 -25.44011 149.23263 36231 ft 477 kts 130°
2026-04-21 23:57 -25.47490 149.29579 36228 ft 478 kts 130°
2026-04-21 23:57 -25.50933 149.35840 36229 ft 479 kts 130°
2026-04-21 23:58 -25.54398 149.42154 36235 ft 477 kts 130°
2026-04-21 23:58 -25.57838 149.48427 36235 ft 480 kts 130°
2026-04-21 23:59 -25.61300 149.54750 36236 ft 478 kts 130°
2026-04-21 23:59 -25.64737 149.61043 36237 ft 479 kts 130°
2026-04-22 00:00 -25.68210 149.67394 36230 ft 480 kts 130°
2026-04-22 00:00 -25.71673 149.73743 36232 ft 483 kts 130°
2026-04-22 00:01 -25.75120 149.80074 36237 ft 481 kts 130°
2026-04-22 00:01 -25.78562 149.86420 36240 ft 480 kts 129°
2026-04-22 00:02 -25.81575 149.93105 36236 ft 490 kts 122°
2026-04-22 00:02 -25.84086 150.00142 36242 ft 492 kts 119°
2026-04-22 00:03 -25.86459 150.07288 36243 ft 495 kts 118°
2026-04-22 00:03 -25.88805 150.14392 36241 ft 493 kts 118°
2026-04-22 00:04 -25.91202 150.21556 36236 ft 491 kts 119°
2026-04-22 00:04 -25.93602 150.28670 36237 ft 493 kts 119°
2026-04-22 00:05 -25.96002 150.35767 36241 ft 494 kts 119°
2026-04-22 00:05 -25.98414 150.42897 36240 ft 492 kts 119°
2026-04-22 00:06 -26.00808 150.49994 36243 ft 493 kts 119°
2026-04-22 00:06 -26.03201 150.57095 36237 ft 490 kts 119°
2026-04-22 00:07 -26.05584 150.64180 36228 ft 492 kts 119°
2026-04-22 00:07 -26.07992 150.71356 36220 ft 492 kts 118°
2026-04-22 00:08 -26.10369 150.78458 36229 ft 492 kts 118°
2026-04-22 00:08 -26.12745 150.85571 36220 ft 489 kts 118°
2026-04-22 00:09 -26.15121 150.92696 36220 ft 490 kts 118°
2026-04-22 00:09 -26.17480 150.99782 36223 ft 490 kts 118°
2026-04-22 00:10 -26.19827 151.06838 36223 ft 490 kts 118°
2026-04-22 00:10 -26.22177 151.13933 36217 ft 485 kts 118°
2026-04-22 00:11 -26.24503 151.20955 36217 ft 487 kts 118°
2026-04-22 00:11 -26.26841 151.28024 36220 ft 487 kts 118°
2026-04-22 00:12 -26.29172 151.35091 36222 ft 487 kts 118°
2026-04-22 00:12 -26.31495 151.42146 36222 ft 485 kts 118°
2026-04-22 00:13 -26.33820 151.49211 36007 ft 487 kts 117°
2026-04-22 00:13 -26.34990 151.52782 35561 ft 483 kts 117°
2026-04-22 00:13 -26.36123 151.56247 34930 ft 481 kts 117°
2026-04-22 00:13 -26.37283 151.59792 34169 ft 483 kts 117°
2026-04-22 00:14 -26.38426 151.63278 33395 ft 484 kts 116°
2026-04-22 00:14 -26.39586 151.66818 32609 ft 486 kts 116°
2026-04-22 00:14 -26.40746 151.70361 31848 ft 486 kts 116°
2026-04-22 00:14 -26.41885 151.73857 31250 ft 482 kts 116°
2026-04-22 00:15 -26.43025 151.77367 30621 ft 479 kts 116°
2026-04-22 00:15 -26.44154 151.80843 29983 ft 476 kts 116°
2026-04-22 00:15 -26.45280 151.84312 29340 ft 473 kts 116°
2026-04-22 00:15 -26.46388 151.87726 28715 ft 470 kts 115°
2026-04-22 00:16 -26.47489 151.91118 28120 ft 467 kts 115°
2026-04-22 00:16 -26.48597 151.94522 27466 ft 464 kts 115°
2026-04-22 00:16 -26.49709 151.97861 26821 ft 461 kts 115°
2026-04-22 00:16 -26.50849 152.01222 26166 ft 458 kts 115°
2026-04-22 00:17 -26.51973 152.04512 25528 ft 455 kts 115°
2026-04-22 00:17 -26.53083 152.07758 24894 ft 452 kts 115°
2026-04-22 00:17 -26.54202 152.11028 24260 ft 448 kts 115°
2026-04-22 00:17 -26.55299 152.14244 23640 ft 445 kts 115°
2026-04-22 00:18 -26.56401 152.17477 23003 ft 442 kts 114°
2026-04-22 00:18 -26.57487 152.20679 22379 ft 438 kts 114°
2026-04-22 00:18 -26.58556 152.23837 21770 ft 434 kts 114°
2026-04-22 00:18 -26.59243 152.25870 21370 ft 432 kts 114°
2026-04-22 00:19 -26.60286 152.28958 20752 ft 428 kts 114°
2026-04-22 00:19 -26.61325 152.32040 20152 ft 424 kts 114°
2026-04-22 00:19 -26.62409 152.35118 19513 ft 419 kts 117°
2026-04-22 00:19 -26.63670 152.37924 18937 ft 396 kts 126°
2026-04-22 00:20 -26.65280 152.40277 18429 ft 374 kts 136°
2026-04-22 00:20 -26.67108 152.42335 17884 ft 367 kts 140°
2026-04-22 00:20 -26.68962 152.44218 17328 ft 364 kts 142°
2026-04-22 00:20 -26.70875 152.46101 16799 ft 361 kts 142°
2026-04-22 00:21 -26.72742 152.47945 16274 ft 359 kts 142°
2026-04-22 00:21 -26.74592 152.49799 15743 ft 357 kts 141°
2026-04-22 00:21 -26.76426 152.51662 15214 ft 354 kts 141°
2026-04-22 00:21 -26.78218 152.53502 14684 ft 352 kts 140°
2026-04-22 00:22 -26.80004 152.55345 14153 ft 349 kts 140°
2026-04-22 00:22 -26.81776 152.57179 13640 ft 346 kts 139°
2026-04-22 00:22 -26.83551 152.59019 13128 ft 343 kts 139°
2026-04-22 00:22 -26.85279 152.60814 12585 ft 336 kts 139°
2026-04-22 00:23 -26.86931 152.62552 12166 ft 323 kts 137°
2026-04-22 00:23 -26.88393 152.64487 11647 ft 324 kts 128°
2026-04-22 00:23 -26.89617 152.66606 11141 ft 324 kts 123°
2026-04-22 00:23 -26.90737 152.68779 10731 ft 320 kts 121°
2026-04-22 00:24 -26.91811 152.70911 10382 ft 314 kts 121°
2026-04-22 00:24 -26.92873 152.72983 10231 ft 301 kts 122°
2026-04-22 00:24 -26.93920 152.74977 10023 ft 292 kts 123°
2026-04-22 00:24 -26.94965 152.76932 9640 ft 290 kts 123°
2026-04-22 00:25 -26.95991 152.78836 9270 ft 288 kts 123°
2026-04-22 00:25 -26.97031 152.80765 8908 ft 285 kts 123°
2026-04-22 00:25 -26.98041 152.82642 8563 ft 282 kts 123°
2026-04-22 00:25 -26.99050 152.84518 8211 ft 279 kts 123°
2026-04-22 00:26 -27.00043 152.86371 7864 ft 276 kts 123°
2026-04-22 00:26 -27.01020 152.88191 7500 ft 272 kts 123°
2026-04-22 00:26 -27.01969 152.89964 7218 ft 260 kts 123°
2026-04-22 00:26 -27.02895 152.91693 6877 ft 258 kts 123°
2026-04-22 00:27 -27.03823 152.93422 6551 ft 256 kts 123°
2026-04-22 00:27 -27.04728 152.95113 6232 ft 254 kts 123°
2026-04-22 00:27 -27.05638 152.96811 5920 ft 251 kts 123°
2026-04-22 00:27 -27.06533 152.98482 5621 ft 249 kts 123°
2026-04-22 00:28 -27.07418 153.00136 5308 ft 247 kts 123°
2026-04-22 00:28 -27.08292 153.01769 4993 ft 245 kts 123°
2026-04-22 00:28 -27.09169 153.03410 4699 ft 243 kts 122°
2026-04-22 00:28 -27.10031 153.05025 4379 ft 242 kts 122°
2026-04-22 00:29 -27.10898 153.06647 4092 ft 239 kts 122°
2026-04-22 00:29 -27.11748 153.08241 3802 ft 238 kts 122°
2026-04-22 00:29 -27.12594 153.09828 3568 ft 233 kts 122°
2026-04-22 00:29 -27.13403 153.11350 3490 ft 222 kts 122°
2026-04-22 00:30 -27.14174 153.12797 3428 ft 211 kts 122°
2026-04-22 00:30 -27.14914 153.14189 3368 ft 201 kts 122°
2026-04-22 00:30 -27.15610 153.15495 3304 ft 190 kts 122°
2026-04-22 00:30 -27.16268 153.16730 3240 ft 179 kts 123°
2026-04-22 00:31 -27.16898 153.17911 3192 ft 176 kts 123°
2026-04-22 00:31 -27.17528 153.19093 3124 ft 176 kts 123°
2026-04-22 00:31 -27.18240 153.20197 3056 ft 174 kts 138°
2026-04-22 00:31 -27.19331 153.20787 2982 ft 176 kts 173°
2026-04-22 00:32 -27.20545 153.20573 2978 ft 179 kts 195°
2026-04-22 00:32 -27.21713 153.20050 2971 ft 180 kts 200°
2026-04-22 00:32 -27.22827 153.19461 2798 ft 176 kts 202°
2026-04-22 00:32 -27.23923 153.18842 2564 ft 175 kts 203°
2026-04-22 00:33 -27.25011 153.18228 2323 ft 169 kts 203°
2026-04-22 00:33 -27.26010 153.17659 2131 ft 153 kts 202°
2026-04-22 00:33 -27.26925 153.17142 1900 ft 142 kts 202°
2026-04-22 00:33 -27.27792 153.16653 1742 ft 140 kts 201°
2026-04-22 00:34 -27.28655 153.16164 1527 ft 138 kts 202°
2026-04-22 00:34 -27.29503 153.15681 1362 ft 139 kts 202°
2026-04-22 00:34 -27.30374 153.15187 1172 ft 138 kts 203°
2026-04-22 00:34 -27.31231 153.14700 1002 ft 139 kts 202°
2026-04-22 00:35 -27.32118 153.14198 815 ft 146 kts 203°
2026-04-22 00:35 -27.33027 153.13680 680 ft 146 kts 203°
2026-04-22 00:35 -27.33941 153.13168 406 ft 147 kts 204°
2026-04-22 00:35 -27.34833 153.12672 205 ft 139 kts 204°
2026-04-22 00:36 -27.35696 153.12175 59 ft 139 kts 205°
2026-04-22 00:36 -27.36539 153.11693 21 ft 127 kts 205°
2026-04-22 00:36 -27.37218 153.11304 21 ft 87 kts 206°
2026-04-22 00:36 -27.37528 153.11127 21 ft 19 kts 202°
2026-04-22 00:37 -27.37648 153.11121 21 ft 0 kts 176°